| time (UTC) | temp C | wind direction | speed KPH | gust KPH | rain 1hr cm | rain 24hr cm | rain mn cm | humidity % | barometer mb |
| 20260831162014 | 23 | 275 | 4.8 | 12.9 | 0.00 | 0.41 | 0.28 | 20 | 1013.0 |
| 20260831161034 | 24 | 288 | 4.8 | 22.5 | 0.00 | 0.41 | 0.28 | 28 | 1012.9 |
| 20260831154957 | 24 | 306 | 6.4 | 16.1 | 0.00 | 0.41 | 0.28 | 26 | 1012.6 |
| 20260831153948 | 23 | 310 | 4.8 | 14.5 | 0.00 | 0.41 | 0.28 | 20 | 1012.7 |
| 20260831152950 | 22 | 273 | 6.4 | 19.3 | 0.00 | 0.41 | 0.28 | 16 | 1012.6 |
| 20260831152007 | 22 | 286 | 6.4 | 19.3 | 0.00 | 0.41 | 0.28 | 18 | 1012.4 |
| 20260831150947 | 23 | 278 | 3.2 | 17.7 | 0.00 | 0.41 | 0.28 | 17 | 1012.4 |
| 20260831150009 | 23 | 290 | 6.4 | 17.7 | 0.00 | 0.41 | 0.28 | 22 | 1012.3 |
| 20260831142657 | 23 | 332 | 3.2 | 14.5 | 0.00 | 0.41 | 0.28 | 14 | 1012.0 |
| 20260831141625 | 22 | 272 | 6.4 | 19.3 | 0.00 | 0.41 | 0.28 | 8 | 1011.9 |
| 20260831140647 | 22 | 309 | 4.8 | 19.3 | 0.00 | 0.41 | 0.28 | 9 | 1011.9 |
| 20260831134526 | 23 | 308 | 3.2 | 16.1 | 0.00 | 0.41 | 0.28 | 10 | 1011.6 |
| 20260831133528 | 23 | 310 | 6.4 | 17.7 | 0.00 | 0.41 | 0.28 | 15 | 1011.6 |
| 20260831131413 | 23 | 339 | 4.8 | 16.1 | 0.00 | 0.41 | 0.28 | 10 | 1011.4 |
| 20260831130427 | 23 | 264 | 6.4 | 17.7 | 0.00 | 0.41 | 0.28 | 8 | 1011.2 |
| 20260831125446 | 22 | 271 | 8.0 | 19.3 | 0.00 | 0.41 | 0.28 | 8 | 1011.1 |
| 20260831124508 | 22 | 284 | 6.4 | 20.9 | 0.00 | 0.41 | 0.28 | 1 | 1011.0 |
| 20260831122313 | 22 | 304 | 4.8 | 19.3 | 0.00 | 0.41 | 0.28 | 1 | 1010.8 |
| 20260831121312 | 22 | 286 | 6.4 | 19.3 | 0.00 | 0.41 | 0.28 | 1 | 1010.6 |
| 20260831115156 | 21 | 295 | 4.8 | 19.3 | 0.00 | 0.41 | 0.28 | 1 | 1010.3 |
| 20260831112949 | 22 | 317 | 6.4 | 20.9 | 0.00 | 0.41 | 0.28 | 1 | 1010.1 |
| 20260831111919 | 22 | 312 | 6.4 | 17.7 | 0.00 | 0.41 | 0.28 | 1 | 1010.0 |
| 20260831110848 | 21 | 264 | 8.0 | 20.9 | 0.00 | 0.41 | 0.28 | 1 | 1009.9 |
| 20260831104650 | 20 | 266 | 6.4 | 17.7 | 0.00 | 0.41 | 0.28 | 1 | 1009.6 |
| 20260831103650 | 21 | 276 | 4.8 | 22.5 | 0.00 | 0.41 | 0.28 | 1 | 1009.4 |
| 20260831102628 | 21 | 267 | 6.4 | 22.5 | 0.00 | 0.41 | 0.28 | 1 | 1009.3 |
| 20260831101556 | 20 | 277 | 8.0 | 12.9 | 0.00 | 0.41 | 0.28 | 1 | 1009.2 |
| 20260831101117 | 20 | 281 | 8.0 | 30.6 | 0.00 | 0.41 | 0.28 | 1 | 1009.2 |
| 20260831100048 | 20 | 284 | 9.7 | 30.6 | 0.00 | 0.41 | 0.28 | 1 | 1009.1 |
| 20260831095058 | 20 | 248 | 8.0 | 24.1 | 0.00 | 0.41 | 0.28 | 1 | 1008.9 |
| 20260831091749 | 18 | 278 | 11.3 | 25.7 | 0.00 | 0.41 | 0.28 | 1 | 1008.4 |
| 20260831090740 | 18 | 263 | 11.3 | 25.7 | 0.00 | 0.41 | 0.28 | 1 | 1008.2 |
| 20260831085718 | 18 | 254 | 9.7 | 24.1 | 0.00 | 0.41 | 0.28 | 1 | 1008.1 |
| 20260831084705 | 17 | 247 | 9.7 | 24.1 | 0.00 | 0.41 | 0.28 | 1 | 1008.0 |
| 20260831083642 | 17 | 302 | 8.0 | 24.1 | 0.00 | 0.41 | 0.28 | 1 | 1007.9 |
| 20260831082630 | 17 | 271 | 6.4 | 22.5 | 0.00 | 0.41 | 0.28 | 1 | 1007.8 |
| 20260831081641 | 16 | 265 | 11.3 | 22.5 | 0.00 | 0.41 | 0.28 | 1 | 1007.6 |
| 20260831080653 | 16 | 294 | 8.0 | 24.1 | 0.00 | 0.41 | 0.28 | 1 | 1007.4 |
| 20260831075621 | 16 | 263 | 8.0 | 24.1 | 0.00 | 0.41 | 0.28 | 1 | 1007.4 |
| 20260831074628 | 16 | 277 | 9.7 | 25.7 | 0.00 | 0.41 | 0.28 | 1 | 1007.3 |
| 20260831073610 | 16 | 294 | 9.7 | 25.7 | 0.00 | 0.41 | 0.28 | 1 | 1007.2 |
| 20260831072555 | 15 | 265 | 9.7 | 19.3 | 0.00 | 0.41 | 0.28 | 1 | 1007.1 |
| 20260831071535 | 15 | 257 | 9.7 | 27.4 | 0.00 | 0.41 | 0.28 | 1 | 1007.0 |
| 20260831070552 | 15 | 262 | 9.7 | 27.4 | 0.00 | 0.41 | 0.28 | 1 | 1006.9 |
| 20260831065609 | 15 | 250 | 8.0 | 20.9 | 0.00 | 0.41 | 0.28 | 1 | 1006.7 |
| 20260831064605 | 15 | 222 | 8.0 | 17.7 | 0.00 | 0.41 | 0.28 | 1 | 1006.5 |
| 20260831063549 | 15 | 248 | 6.4 | 22.5 | 0.00 | 0.41 | 0.28 | 1 | 1006.4 |
| 20260831062551 | 15 | 244 | 8.0 | 22.5 | 0.00 | 0.41 | 0.28 | 1 | 1006.3 |
| 20260831060338 | 14 | 259 | 8.0 | 22.5 | 0.00 | 0.41 | 0.28 | 1 | 1005.9 |
| 20260831055322 | 14 | 215 | 8.0 | 17.7 | 0.00 | 0.41 | 0.28 | 1 | 1005.8 |
| 20260831054250 | 14 | 248 | 8.0 | 19.3 | 0.00 | 0.41 | 0.28 | 1 | 1005.7 |
| 20260831053246 | 14 | 255 | 9.7 | 22.5 | 0.00 | 0.41 | 0.28 | 1 | 1005.6 |
| 20260831052257 | 14 | 247 | 8.0 | 22.5 | 0.00 | 0.41 | 0.28 | 1 | 1005.6 |
| 20260831051229 | 14 | 292 | 8.0 | 20.9 | 0.00 | 0.41 | 0.28 | 1 | 1005.4 |
| 20260831043925 | 15 | 257 | 8.0 | 19.3 | 0.00 | 0.41 | 0.28 | 1 | 1005.1 |
| 20260831042856 | 15 | 242 | 8.0 | 19.3 | 0.00 | 0.41 | 0.28 | 1 | 1005.0 |
| 20260831041836 | 15 | 227 | 8.0 | 17.7 | 0.00 | 0.41 | 0.28 | 1 | 1004.8 |
| 20260831040838 | 15 | 246 | 9.7 | 22.5 | 0.00 | 0.41 | 0.28 | 1 | 1004.8 |
| 20260831035854 | 15 | 263 | 9.7 | 22.5 | 0.00 | 0.41 | 0.28 | 1 | 1004.9 |
| 20260831034847 | 15 | 200 | 9.7 | 22.5 | 0.00 | 0.41 | 0.28 | 1 | 1004.9 |
| 20260831033853 | 16 | 236 | 8.0 | 17.7 | 0.00 | 0.41 | 0.28 | 1 | 1004.9 |
| 20260831032851 | 16 | 261 | 8.0 | 25.7 | 0.00 | 0.41 | 0.28 | 1 | 1004.8 |
| 20260831031835 | 16 | 242 | 11.3 | 25.7 | 0.00 | 0.38 | 0.28 | 1 | 1004.7 |
| 20260831030809 | 16 | 229 | 8.0 | 19.3 | 0.00 | 0.38 | 0.28 | 1 | 1004.7 |
| 20260831023444 | 15 | 218 | 6.4 | 16.1 | 0.00 | 0.38 | 0.28 | 1 | 1004.8 |
| 20260831021329 | 15 | 192 | 4.8 | 12.9 | 0.08 | 0.38 | 0.28 | 1 | 1005.0 |
| 20260831014104 | 16 | 194 | 9.7 | 22.5 | 0.00 | 0.10 | 0.00 | 1 | 1005.4 |
| 20260831013041 | 16 | 186 | 8.0 | 19.3 | 0.00 | 0.10 | 0.00 | 1 | 1005.2 |
| 20260831012038 | 16 | 204 | 9.7 | 19.3 | 0.00 | 0.10 | 0.00 | 1 | 1005.3 |
| 20260831004658 | 16 | 175 | 6.4 | 22.5 | 0.00 | 0.10 | 0.00 | 1 | 1005.2 |
| 20260831003717 | 16 | 196 | 8.0 | 22.5 | 0.00 | 0.10 | 0.00 | 1 | 1005.5 |
| 20260831002643 | 16 | 186 | 6.4 | 19.3 | 0.00 | 0.10 | 0.00 | 1 | 1005.5 |
| 20260831001634 | 16 | 213 | 4.8 | 14.5 | 0.00 | 0.10 | 0.00 | 1 | 1005.6 |
| 20260831000626 | 16 | 200 | 3.2 | 12.9 | 0.00 | 0.10 | 0.00 | 1 | 1005.6 |
| 20260830235556 | 16 | 229 | 4.8 | 14.5 | 0.00 | 0.10 | 0.00 | 1 | 1005.7 |
| 20260830234529 | 16 | 207 | 4.8 | 16.1 | 0.00 | 0.10 | 0.00 | 1 | 1005.9 |
| 20260830233516 | 16 | 223 | 4.8 | 16.1 | 0.00 | 0.10 | 0.00 | 1 | 1006.0 |
| 20260830232445 | 16 | 218 | 3.2 | 14.5 | 0.00 | 0.10 | 0.00 | 1 | 1006.1 |
| 20260830230330 | 17 | 246 | 4.8 | 17.7 | 0.00 | 0.10 | 0.00 | 1 | 1006.2 |
| 20260830225331 | 17 | 269 | 6.4 | 19.3 | 0.00 | 0.10 | 0.10 | 1 | 1006.1 |
| 20260830224340 | 17 | 248 | 8.0 | 22.5 | 0.00 | 0.10 | 0.10 | 1 | 1006.1 |
| 20260830223358 | 17 | 246 | 8.0 | 22.5 | 0.08 | 0.10 | 0.10 | 1 | 1006.1 |
| 20260830222409 | 17 | 218 | 8.0 | 20.9 | 0.66 | 0.10 | 0.10 | 1 | 1006.0 |
| 20260830221336 | 17 | 167 | 8.0 | 20.9 | 0.00 | 0.08 | 0.08 | 1 | 1006.0 |
| 20260830220338 | 18 | 179 | 8.0 | 32.2 | 0.08 | 0.08 | 0.08 | 1 | 1006.1 |
| 20260830215349 | 18 | 233 | 11.3 | 32.2 | 0.18 | 0.08 | 0.08 | 1 | 1006.5 |
| 20260830214340 | 18 | 210 | 4.8 | 22.5 | 0.00 | 0.00 | 0.00 | 1 | 1006.4 |
| 20260830213403 | 18 | 201 | 1.6 | 8.0 | 0.00 | 0.00 | 0.00 | 1 | 1006.2 |
| 20260830212405 | 18 | 183 | 6.4 | 16.1 | 0.00 | 0.00 | 0.00 | 1 | 1006.4 |
| 20260830211354 | 18 | 211 | 6.4 | 17.7 | 0.00 | 0.00 | 0.00 | 1 | 1006.5 |
| 20260830210417 | 18 | 196 | 6.4 | 17.7 | 0.00 | 0.00 | 0.00 | 1 | 1006.6 |
| 20260830204304 | 18 | 171 | 6.4 | 16.1 | 0.00 | 0.00 | 0.00 | 1 | 1006.7 |
| 20260830203240 | 18 | 195 | 6.4 | 16.1 | 0.00 | 0.00 | 0.00 | 1 | 1006.8 |
| 20260830202247 | 18 | 198 | 8.0 | 16.1 | 0.00 | 0.00 | 0.00 | 1 | 1007.1 |
| 20260830201251 | 18 | 189 | 6.4 | 17.7 | 0.00 | 0.00 | 0.00 | 1 | 1007.0 |
| 20260830200226 | 18 | 170 | 6.4 | 17.7 | 0.00 | 0.00 | 0.00 | 1 | 1007.3 |
| 20260830191850 | 18 | 171 | 6.4 | 14.5 | 0.00 | 0.00 | 0.00 | 1 | 1007.3 |
| 20260830190822 | 18 | 178 | 8.0 | 16.1 | 0.00 | 0.00 | 0.00 | 1 | 1007.4 |
| 20260830185810 | 18 | 200 | 6.4 | 16.1 | 0.00 | 0.00 | 0.00 | 1 | 1007.3 |
| 20260830184832 | 18 | 232 | 8.0 | 16.1 | 0.00 | 0.00 | 0.00 | 1 | 1007.3 |
| 20260830183811 | 19 | 189 | 9.7 | 20.9 | 0.00 | 0.00 | 0.00 | 1 | 1007.3 |
| 20260830181651 | 19 | 192 | 11.3 | 25.7 | 0.00 | 0.00 | 0.00 | 1 | 1007.2 |
| 20260830180643 | 19 | 227 | 11.3 | 24.1 | 0.00 | 0.00 | 0.00 | 1 | 1007.2 |
| 20260830175646 | 20 | 171 | 11.3 | 24.1 | 0.00 | 0.00 | 0.00 | 1 | 1007.2 |
| 20260830174618 | 20 | 196 | 6.4 | 14.5 | 0.00 | 0.00 | 0.00 | 1 | 1007.3 |
| 20260830171322 | 20 | 209 | 4.8 | 20.9 | 0.00 | 0.00 | 0.00 | 1 | 1007.7 |
| 20260830170329 | 20 | 200 | 8.0 | 20.9 | 0.00 | 0.00 | 0.00 | 1 | 1007.8 |
| 20260830165317 | 20 | 181 | 8.0 | 20.9 | 0.00 | 0.00 | 0.00 | 1 | 1007.9 |
| 20260830164335 | 20 | 225 | 6.4 | 24.1 | 0.00 | 0.00 | 0.00 | 1 | 1008.0 |